Back to catalog

STARLINK-36821

AliveCommunicationsSSO
NORAD 67880·PAYLOAD·🇺🇸 United States

Launched Feb 21, 2026 from Vandenberg Space Force Base

Loading…

Next Passes (next 24 hours)

TLE

FreshSource: CelesTrak SupGP

Epoch: Sep 15, 2026, 02:39 UTC

1 67880C 26035B   26258.11090278 -.00015907  00000+0 -49464-3 0  2587
2 67880  97.2848 189.9638 0001997  93.7314 221.7275 15.33392233    17

Track STARLINK-36821 in real time with AllMySat

Download on the App Store